Weather History for Clinton-Sherman, OK

Change the Weather History Date:

Thursday, February 21, 2013

  Actual Average Record
Temperature  
Mean Temperature 28 °F -  
Max Temperature 34 °F 52 °F 72 °F (2007)
Min Temperature 21 °F 32 °F 21 °F (2006)
Degree Days  
Heating Degree Days 38    
Moisture  
Dew Point 29 °F    
Average Humidity 92    
Maximum Humidity 100    
Minimum Humidity 74    
Precipitation  
Precipitation 0.41 in - - ()
Sea Level Pressure  
Sea Level Pressure 29.77 in    
Wind  
Wind Speed 14 mph (NE)    
Max Wind Speed 26 mph    
Max Gust Speed 33 mph    
Visibility 5 miles    
Events Fog , Rain , Snow , Thunderstorm    
Averages and records for this station are not official NWS values.
T = Trace of Precipitation, MM = Missing Value Source: NWS Daily Summary

Daily Weather History Graph

Daily Weather History Graph

Search for Another Location

Airport:

Trip Planner

Search our weather history database for the weather conditions in past years. The results will help you decide how hot, cold, wet, or windy it might be!

Date:

Astronomy

Feb. 21, 2013 Rise Set
Actual Time 7:16 AM CST 6:25 PM CST
Civil Twilight 6:50 AM CST 6:50 PM CST
Nautical Twilight 6:20 AM CST 7:20 PM CST
Astronomical Twilight 5:51 AM CST 7:50 PM CST
Moon 2:46 PM CST 4:16 AM CST
Length of Visible Light 12h 00m
Length of Day
11h 09m
Waxing Gibbous, 84% of the Moon is Illuminated
Feb 21
Waxing Gibbous
Feb 25
Full
Mar 4
Last Quarter
Mar 11
New
Mar 19
First Quarter

Hourly Weather History & Observations

Time (CST) Temp. Windchill Dew Point Humidity Pressure Visibility Wind Dir Wind Speed Gust Speed Precip Events Conditions
12:06 AM 33.8 °F 23.9 °F 32.0 °F 93% 29.80 in 4.0 mi East 15.0 mph 23.0 mph 0.00 in Rain Light Rain
12:19 AM 33.8 °F 22.5 °F 30.2 °F 87% 29.77 in 2.5 mi East 19.6 mph 23.0 mph 0.10 in Rain Rain
12:28 AM 33.8 °F 23.5 °F 30.2 °F 87% 29.74 in 3.0 mi ENE 16.1 mph - 0.11 in Rain , Thunderstorm Rain
12:46 AM 32.0 °F 20.8 °F 30.2 °F 93% 29.76 in - East 17.3 mph 25.3 mph 0.18 in Rain , Thunderstorm Light Freezing Rain
12:53 AM 32.0 °F 20.8 °F 30.9 °F 96% 29.75 in 3.0 mi ENE 17.3 mph 25.3 mph 0.21 in Rain , Thunderstorm Light Freezing Rain
1:00 AM 32.0 °F 20.5 °F 30.2 °F 93% 29.71 in 3.0 mi East 18.4 mph 25.3 mph 0.01 in Rain Light Freezing Rain
1:05 AM 32.0 °F 20.8 °F 30.2 °F 93% 29.71 in 4.0 mi East 17.3 mph - 0.02 in Rain , Thunderstorm Light Freezing Rain
1:13 AM 32.0 °F 19.8 °F 30.2 °F 93% 29.71 in 6.0 mi East 20.7 mph 25.3 mph 0.02 in Rain , Thunderstorm Light Freezing Rain
1:33 AM 32.0 °F 24.2 °F 30.2 °F 93% 29.76 in 5.0 mi East 9.2 mph - 0.03 in Rain Light Freezing Rain
1:51 AM 32.0 °F 22.1 °F 30.2 °F 93% 29.74 in 2.0 mi East 13.8 mph 19.6 mph 0.04 in Rain Light Freezing Rain
1:53 AM 32.0 °F 21.6 °F 30.9 °F 96% 29.77 in 2.0 mi East 15.0 mph 19.6 mph 0.04 in Rain Light Freezing Rain
2:05 AM 32.0 °F 25.6 °F 30.2 °F 93% 29.79 in 2.0 mi NNE 6.9 mph - 0.01 in Rain , Thunderstorm Light Freezing Rain
2:16 AM 32.0 °F 23.6 °F 30.2 °F 93% 29.77 in 2.0 mi NE 10.4 mph - 0.05 in Rain , Thunderstorm Light Freezing Rain
2:24 AM 32.0 °F 22.5 °F 30.2 °F 93% 29.75 in 2.5 mi ENE 12.7 mph - 0.07 in Rain , Thunderstorm Light Freezing Rain
2:31 AM 32.0 °F 23.0 °F 30.2 °F 93% 29.75 in 3.0 mi NE 11.5 mph - 0.07 in   Overcast
2:40 AM 32.0 °F 23.0 °F 30.2 °F 93% 29.77 in 4.0 mi ENE 11.5 mph - 0.07 in   Overcast
2:53 AM 32.0 °F 24.8 °F 30.9 °F 96% 29.80 in 3.0 mi NE 8.1 mph - 0.10 in   Overcast
3:01 AM 32.0 °F 23.0 °F 30.2 °F 93% 29.75 in 2.0 mi NE 11.5 mph - 0.00 in   Overcast
3:12 AM 32.0 °F 23.0 °F 30.2 °F 93% 29.74 in 1.8 mi NE 11.5 mph - 0.00 in Snow Light Snow
3:23 AM 32.0 °F 24.8 °F 30.2 °F 93% 29.76 in 1.2 mi NNE 8.1 mph - 0.00 in Snow , Thunderstorm Light Thunderstorms and Snow
3:38 AM 32.0 °F 23.0 °F 30.2 °F 93% 29.72 in 1.2 mi NE 11.5 mph - 0.01 in   Overcast
3:46 AM 32.0 °F 24.8 °F 30.2 °F 93% 29.75 in 1.2 mi North 8.1 mph - 0.02 in Snow Light Snow
3:53 AM 32.0 °F 23.6 °F 30.9 °F 96% 29.77 in 1.0 mi NNE 10.4 mph - 0.03 in Snow Light Snow
4:17 AM 32.0 °F 24.2 °F 30.2 °F 93% 29.76 in 3.0 mi NE 9.2 mph - 0.00 in Snow Light Snow
4:32 AM 32.0 °F 25.6 °F 30.2 °F 93% 29.74 in 3.0 mi NNE 6.9 mph - 0.02 in Rain Light Freezing Rain
4:37 AM 32.0 °F 24.8 °F 30.2 °F 93% 29.74 in 2.5 mi NNE 8.1 mph - 0.02 in Rain Light Freezing Rain
4:53 AM 32.0 °F 23.0 °F 30.0 °F 92% 29.76 in 3.0 mi NNE 11.5 mph - 0.02 in   Overcast
5:11 AM 32.0 °F 22.5 °F 30.2 °F 93% 29.71 in 4.0 mi NE 12.7 mph - 0.01 in Rain Light Freezing Rain
5:19 AM 30.2 °F 18.9 °F 30.2 °F 100% 29.70 in 4.0 mi ENE 16.1 mph - 0.01 in Rain Light Freezing Rain
5:28 AM 30.2 °F 18.1 °F 30.2 °F 100% 29.69 in 6.0 mi NE 18.4 mph - 0.01 in Snow Light Snow
5:44 AM 30.2 °F 18.5 °F 30.2 °F 100% 29.70 in 9.0 mi ENE 17.3 mph - 0.01 in   Overcast
5:53 AM 30.9 °F 19.8 °F 30.0 °F 96% 29.73 in 10.0 mi ENE 16.1 mph - 0.01 in   Overcast
6:53 AM 30.9 °F 22.2 °F 28.9 °F 92% 29.73 in 10.0 mi East 10.4 mph - N/A   Overcast
7:43 AM 30.2 °F 18.5 °F 28.4 °F 93% 29.65 in 10.0 mi ENE 17.3 mph - N/A   Overcast
7:53 AM 30.0 °F 19.1 °F 28.9 °F 96% 29.69 in 9.0 mi East 15.0 mph - N/A   Overcast
8:53 AM 30.9 °F 21.7 °F 30.0 °F 96% 29.71 in 8.0 mi East 11.5 mph - N/A   Overcast
9:53 AM 30.9 °F 22.2 °F 30.0 °F 96% 29.70 in 2.5 mi SE 10.4 mph - N/A   Overcast
10:06 AM 30.2 °F 21.9 °F 30.2 °F 100% 29.67 in 0.8 mi SE 9.2 mph - N/A   Overcast
10:14 AM 30.2 °F 20.8 °F 30.2 °F 100% 29.68 in 0.2 mi SSE 11.5 mph - N/A Fog Light Freezing Fog
10:48 AM 30.2 °F 22.6 °F 30.2 °F 100% 29.67 in 1.0 mi SSE 8.1 mph - N/A   Mist
11:00 AM 32.0 °F 25.6 °F 30.2 °F 93% 29.67 in 0.5 mi SSE 6.9 mph - N/A Fog Fog
11:53 AM 32.0 °F 25.6 °F 30.9 °F 96% 29.73 in 0.2 mi SW 6.9 mph - N/A Fog Fog
12:53 PM 32.0 °F 24.8 °F 32.0 °F 100% 29.72 in 0.2 mi West 8.1 mph - N/A Fog Fog
1:53 PM 33.1 °F 24.4 °F 32.0 °F 96% 29.72 in 0.8 mi West 11.5 mph - N/A   Overcast
2:02 PM 33.8 °F 25.8 °F 33.8 °F 100% 29.69 in 1.8 mi WNW 10.4 mph - N/A   Overcast
2:05 PM 33.8 °F 25.8 °F 33.8 °F 100% 29.69 in 3.0 mi WNW 10.4 mph - N/A   Overcast
2:53 PM 33.1 °F 25.5 °F 32.0 °F 96% 29.74 in 7.0 mi WNW 9.2 mph - N/A   Overcast
3:46 PM 33.8 °F 27.0 °F 32.0 °F 93% 29.75 in 10.0 mi WNW 8.1 mph - N/A   Overcast
3:53 PM 34.0 °F 26.6 °F 32.0 °F 92% 29.78 in 10.0 mi NW 9.2 mph - N/A   Overcast
4:50 PM 32.0 °F 19.8 °F 28.4 °F 87% 29.80 in 10.0 mi WNW 20.7 mph 28.8 mph N/A   Overcast
4:53 PM 32.0 °F 19.5 °F 28.0 °F 85% 29.84 in 10.0 mi NW 21.9 mph 28.8 mph N/A   Overcast
5:53 PM 28.9 °F 14.5 °F 23.0 °F 78% 29.86 in 10.0 mi NW 25.3 mph 33.4 mph N/A   Mostly Cloudy
6:31 PM 26.6 °F 11.1 °F 21.2 °F 80% 29.85 in 10.0 mi NW 26.5 mph 31.1 mph N/A   Scattered Clouds
6:53 PM 26.1 °F 12.0 °F 21.0 °F 81% 29.92 in 10.0 mi NW 20.7 mph - N/A   Scattered Clouds
7:01 PM 26.6 °F 13.4 °F 19.4 °F 74% 29.88 in 10.0 mi NW 18.4 mph 29.9 mph N/A   Mostly Cloudy
7:12 PM 24.8 °F 9.0 °F 17.6 °F 74% 29.89 in 10.0 mi NW 25.3 mph 31.1 mph N/A   Scattered Clouds
7:53 PM 24.1 °F 10.1 °F 17.1 °F 75% 29.95 in 10.0 mi NW 18.4 mph 26.5 mph N/A   Clear
9:53 PM 21.9 °F 7.3 °F 16.0 °F 78% 30.00 in 10.0 mi NNW 18.4 mph - N/A   Clear
10:53 PM 21.9 °F 11.7 °F 16.0 °F 78% 30.05 in 10.0 mi NNW 9.2 mph - N/A   Clear
11:53 PM 21.9 °F 7.8 °F 15.1 °F 75% 30.04 in 10.0 mi NNW 17.3 mph - N/A   Clear